Location: Arrien
(42.8963°N, 1.0429°E)
Time: 09:11:18
(UTC+00:00)

ISS - Pass Details

Date: 17 February 2026
Orbit: 416 x 426 km, 51.6° (Epoch: 9 March)

Event Time Altitude Azimuth Distance (km) Brightness Sun altitude
Exits shadow 04:39:29 35° 69° (ENE) 690 -2.2 -24.6°
Drops below altitude 10° 04:41:35 10° 60° (ENE) 1,494 -0.1 -24.2°
Sets 04:43:41 0° 58° (ENE) 2,359 1.1 -23.9°
